カタログに戻る

STARLINK-11474

運用中通信VLEO
NORAD 62065·PAYLOAD·🇺🇸 United States

打ち上げ Nov 24, 2024 から Vandenberg Space Force Base

Loading…

次のパス (今後24時間)

TLE

最新Source: CelesTrak SupGP

元期: Sep 14, 2026, 20:47 UTC

1 62065C 24217J   26257.86645833  .00051960  00000+0  42798-3 0  2570
2 62065  53.1573 218.3590 0001364  88.7896 150.0414 15.69685045    18

AllMySatでSTARLINK-11474をリアルタイム追跡

Download on the App Store